Location: Unspecified
(0.0000°N, 0.0000°E)
Time: 15:36:58
(UTC+00:00)

Envisat - Pass Details

Date: 19 February 2018
Orbit: 764 x 766 km, 98.2° (Epoch: 25 February)

Event Time Altitude Azimuth Distance (km) Brightness Sun altitude
Rises 19:53:44 0° 168° (SSE) 3,231 6.2 -24.5°
Reaches altitude 10° 19:56:02 10° 167° (SSE) 2,303 5.5 -25.0°
Maximum altitude 20:01:07 87° 78° (ENE) 770 2.8 -26.3°
Enters shadow 20:02:00 62° 354° (N) 856 3.1 -26.5°
Exits shadow 20:05:00 18° 349° (N) 1,828 4.9 -27.2°
Drops below altitude 10° 20:06:11 10° 349° (N) 2,292 5.4 -27.5°
Sets 20:08:28 0° 349° (N) 3,215 6.2 -28.1°
